NOZ3KU EPWA-ENGM

Flight info

Callsign NOZ3KU
Flight time 1h 34m
Altitude 36000
Route OLILA L621 SOMOR DCT LARMA DCT SABAK L997 LUNIP
Aircraft B738/M-SDE2E3FGHIRWXY/LB1

Departure

Time 2026-05-07 18:34
Airport Warsaw Chopin Airport (EPWA)

Arrival

Time 2026-05-07 20:08
Airport Oslo-Gardermoen International Airport (ENGM)
Time Latitude Longitude Altitude Speed Heading
2026-05-07 18:06 52.17084 20.96788 332 ft 0 kts 97°
2026-05-07 18:27 52.17084 20.96793 331 ft 2 kts 97°
2026-05-07 18:28 52.17089 20.96859 332 ft 4 kts 87°
2026-05-07 18:28 52.17075 20.96912 333 ft 5 kts 137°
2026-05-07 18:28 52.17021 20.96969 333 ft 14 kts 151°
2026-05-07 18:28 52.16928 20.97048 334 ft 14 kts 152°
2026-05-07 18:29 52.16844 20.97119 335 ft 12 kts 152°
2026-05-07 18:29 52.16755 20.97199 336 ft 16 kts 150°
2026-05-07 18:29 52.16663 20.97283 336 ft 13 kts 150°
2026-05-07 18:29 52.16584 20.97357 336 ft 12 kts 142°
2026-05-07 18:30 52.16543 20.97481 337 ft 13 kts 113°
2026-05-07 18:30 52.16503 20.97627 336 ft 13 kts 115°
2026-05-07 18:30 52.16470 20.97742 336 ft 8 kts 115°
2026-05-07 18:30 52.16457 20.97785 335 ft 2 kts 122°
2026-05-07 18:31 52.16421 20.97813 335 ft 6 kts 188°
2026-05-07 18:31 52.16395 20.97794 334 ft 0 kts 210°
2026-05-07 18:32 52.16389 20.97789 334 ft 6 kts 208°
2026-05-07 18:33 52.16322 20.97733 333 ft 7 kts 206°
2026-05-07 18:33 52.16305 20.97673 333 ft 6 kts 286°
2026-05-07 18:33 52.16309 20.97658 333 ft 0 kts 294°
2026-05-07 18:34 52.16314 20.97640 333 ft 14 kts 294°
2026-05-07 18:34 52.16470 20.97087 335 ft 92 kts 295°
2026-05-07 18:34 52.16833 20.95792 344 ft 156 kts 295°
2026-05-07 18:34 52.17300 20.94112 980 ft 165 kts 297°
2026-05-07 18:35 52.17823 20.92438 1683 ft 175 kts 302°
2026-05-07 18:35 52.18406 20.90658 2335 ft 184 kts 299°
2026-05-07 18:35 52.19061 20.88817 2828 ft 197 kts 313°
2026-05-07 18:35 52.20216 20.87525 3293 ft 211 kts 331°
2026-05-07 18:36 52.21524 20.86201 3766 ft 231 kts 326°
2026-05-07 18:36 52.22872 20.84676 4427 ft 244 kts 324°
2026-05-07 18:36 52.24297 20.83080 5092 ft 256 kts 325°
2026-05-07 18:36 52.25783 20.81461 5904 ft 262 kts 325°
2026-05-07 18:37 52.27302 20.79827 6732 ft 266 kts 324°
2026-05-07 18:37 52.28851 20.78162 7548 ft 271 kts 324°
2026-05-07 18:37 52.30424 20.76469 8351 ft 275 kts 324°
2026-05-07 18:37 52.32023 20.74745 9132 ft 280 kts 324°
2026-05-07 18:38 52.33649 20.72991 9894 ft 284 kts 324°
2026-05-07 18:38 52.35309 20.71197 10528 ft 294 kts 323°
2026-05-07 18:38 52.37054 20.69306 10966 ft 310 kts 323°
2026-05-07 18:38 52.38892 20.67313 11402 ft 325 kts 323°
2026-05-07 18:39 52.40802 20.65244 11986 ft 335 kts 323°
2026-05-07 18:39 52.42755 20.63130 12677 ft 341 kts 324°
2026-05-07 18:39 52.44738 20.60982 13403 ft 345 kts 323°
2026-05-07 18:39 52.46749 20.58800 14111 ft 349 kts 323°
2026-05-07 18:40 52.48777 20.56594 14751 ft 355 kts 323°
2026-05-07 18:40 52.50839 20.54348 15380 ft 361 kts 323°
2026-05-07 18:40 52.52933 20.52062 16017 ft 365 kts 323°
2026-05-07 18:40 52.55054 20.49747 16633 ft 371 kts 323°
2026-05-07 18:41 52.57208 20.47394 17214 ft 376 kts 323°
2026-05-07 18:41 52.59391 20.45007 17809 ft 381 kts 323°
2026-05-07 18:41 52.61608 20.42578 18367 ft 386 kts 323°
2026-05-07 18:41 52.63842 20.40130 18982 ft 390 kts 323°
2026-05-07 18:42 52.66062 20.37583 19556 ft 393 kts 320°
2026-05-07 18:42 52.68203 20.34782 20087 ft 396 kts 315°
2026-05-07 18:42 52.70303 20.31839 20624 ft 400 kts 314°
2026-05-07 18:42 52.72408 20.28834 21145 ft 404 kts 314°
2026-05-07 18:43 52.74543 20.25797 21649 ft 409 kts 314°
2026-05-07 18:43 52.76710 20.22744 22196 ft 413 kts 314°
2026-05-07 18:43 52.78904 20.19682 22714 ft 416 kts 315°
2026-05-07 18:43 52.81125 20.16600 23191 ft 421 kts 315°
2026-05-07 18:44 52.83370 20.13492 23679 ft 424 kts 315°
2026-05-07 18:44 52.85631 20.10374 24229 ft 426 kts 315°
2026-05-07 18:44 52.87910 20.07238 24615 ft 432 kts 315°
2026-05-07 18:44 52.90244 20.04018 24786 ft 444 kts 315°
2026-05-07 18:45 52.92634 20.00709 24990 ft 454 kts 315°
2026-05-07 18:45 52.95058 19.97354 25490 ft 456 kts 315°
2026-05-07 18:45 52.97484 19.94000 26076 ft 456 kts 315°
2026-05-07 18:45 52.99916 19.90635 26572 ft 459 kts 315°
2026-05-07 18:46 53.02366 19.87236 26973 ft 463 kts 315°
2026-05-07 18:46 53.04833 19.83801 27390 ft 466 kts 315°
2026-05-07 18:46 53.07326 19.80325 27839 ft 469 kts 315°
2026-05-07 18:46 53.09823 19.76843 28308 ft 470 kts 315°
2026-05-07 18:47 53.12325 19.73351 28830 ft 470 kts 314°
2026-05-07 18:47 53.14828 19.69851 29212 ft 473 kts 314°
2026-05-07 18:47 53.17346 19.66321 29548 ft 477 kts 314°
2026-05-07 18:47 53.19882 19.62752 29896 ft 480 kts 314°
2026-05-07 18:48 53.22438 19.59154 30208 ft 484 kts 314°
2026-05-07 18:48 53.25011 19.55530 30592 ft 486 kts 314°
2026-05-07 18:48 53.27606 19.51872 30878 ft 489 kts 314°
2026-05-07 18:48 53.30211 19.48195 31189 ft 492 kts 314°
2026-05-07 18:49 53.32838 19.44472 31360 ft 497 kts 314°
2026-05-07 18:49 53.35501 19.40693 31612 ft 500 kts 314°
2026-05-07 18:49 53.38168 19.36900 31963 ft 501 kts 314°
2026-05-07 18:49 53.40829 19.33112 32368 ft 500 kts 314°
2026-05-07 18:50 53.43477 19.29343 32937 ft 495 kts 314°
2026-05-07 18:50 53.46086 19.25625 33473 ft 491 kts 314°
2026-05-07 18:50 53.48660 19.21950 34063 ft 485 kts 314°
2026-05-07 18:50 53.51200 19.18320 34724 ft 476 kts 314°
2026-05-07 18:51 53.53692 19.14755 35281 ft 468 kts 314°
2026-05-07 18:51 53.56150 19.11226 35548 ft 467 kts 314°
2026-05-07 18:51 53.58623 19.07660 35759 ft 468 kts 314°
2026-05-07 18:51 53.61099 19.04081 35974 ft 468 kts 314°
2026-05-07 18:52 53.63561 19.00518 36056 ft 466 kts 314°
2026-05-07 18:52 53.68415 18.93490 36062 ft 457 kts 314°
2026-05-07 18:53 53.73239 18.86477 36061 ft 460 kts 315°
2026-05-07 18:53 53.78077 18.79423 36061 ft 460 kts 315°
2026-05-07 18:54 53.82900 18.72376 36062 ft 460 kts 314°
2026-05-07 18:54 53.87742 18.65272 36055 ft 461 kts 315°
2026-05-07 18:55 53.92574 18.58166 36051 ft 462 kts 315°
2026-05-07 18:55 53.97414 18.51029 36060 ft 462 kts 315°
2026-05-07 18:56 54.02246 18.43880 36053 ft 461 kts 315°
2026-05-07 18:56 54.07071 18.36720 36054 ft 461 kts 315°
2026-05-07 18:57 54.11905 18.29522 36057 ft 462 kts 314°
2026-05-07 18:57 54.16717 18.22331 36056 ft 461 kts 314°
2026-05-07 18:58 54.21514 18.15141 36053 ft 460 kts 314°
2026-05-07 18:58 54.26306 18.07935 36053 ft 461 kts 314°
2026-05-07 18:59 54.31092 18.00712 36059 ft 460 kts 314°
2026-05-07 18:59 54.35871 17.93479 36060 ft 460 kts 314°
2026-05-07 19:00 54.39851 17.87437 36061 ft 459 kts 314°
2026-05-07 19:00 54.45414 17.78965 36066 ft 460 kts 315°
2026-05-07 19:01 54.50181 17.71681 36062 ft 460 kts 315°
2026-05-07 19:01 54.54930 17.64400 36071 ft 459 kts 315°
2026-05-07 19:02 54.59670 17.57112 36078 ft 458 kts 315°
2026-05-07 19:02 54.64415 17.49791 36080 ft 458 kts 315°
2026-05-07 19:03 54.69134 17.42486 36097 ft 457 kts 315°
2026-05-07 19:03 54.73847 17.35166 36087 ft 457 kts 315°
2026-05-07 19:04 54.78551 17.27835 36095 ft 456 kts 314°
2026-05-07 19:04 54.83241 17.20504 36102 ft 456 kts 315°
2026-05-07 19:05 54.87927 17.13154 36105 ft 455 kts 315°
2026-05-07 19:05 54.92593 17.05816 35951 ft 452 kts 315°
2026-05-07 19:06 54.97257 16.98453 35999 ft 458 kts 315°
2026-05-07 19:06 55.01922 16.91064 36118 ft 456 kts 315°
2026-05-07 19:06 55.04267 16.87340 36120 ft 456 kts 315°
2026-05-07 19:07 55.08947 16.79890 36252 ft 457 kts 315°
2026-05-07 19:07 55.11273 16.76180 36125 ft 451 kts 315°
2026-05-07 19:07 55.13561 16.72526 35928 ft 445 kts 315°
2026-05-07 19:08 55.15831 16.68894 36107 ft 445 kts 315°
2026-05-07 19:08 55.18116 16.65228 36119 ft 450 kts 315°
2026-05-07 19:08 55.22749 16.57774 36427 ft 456 kts 315°
2026-05-07 19:09 55.27385 16.50301 35850 ft 453 kts 316°
2026-05-07 19:09 55.29696 16.46654 36006 ft 446 kts 317°
2026-05-07 19:09 55.32033 16.43089 36125 ft 448 kts 317°
2026-05-07 19:10 55.36804 16.35940 36140 ft 455 kts 318°
2026-05-07 19:10 55.41601 16.28753 36075 ft 453 kts 317°
2026-05-07 19:11 55.43980 16.25169 36430 ft 452 kts 317°
2026-05-07 19:11 55.46354 16.21578 36087 ft 449 kts 317°
2026-05-07 19:11 55.51103 16.14355 36137 ft 455 kts 317°
2026-05-07 19:12 55.55883 16.07048 36135 ft 455 kts 319°
2026-05-07 19:12 55.60604 15.99804 36137 ft 449 kts 319°
2026-05-07 19:13 55.65299 15.92572 36131 ft 449 kts 319°
2026-05-07 19:13 55.69996 15.85312 36143 ft 450 kts 319°
2026-05-07 19:14 55.74683 15.78044 36134 ft 449 kts 319°
2026-05-07 19:14 55.79371 15.70750 36139 ft 450 kts 319°
2026-05-07 19:15 55.84060 15.63432 36120 ft 450 kts 319°
2026-05-07 19:15 55.88740 15.56102 36147 ft 449 kts 319°
2026-05-07 19:16 55.93405 15.48769 36145 ft 447 kts 319°
2026-05-07 19:16 55.98057 15.41435 36135 ft 447 kts 319°
2026-05-07 19:17 56.02696 15.34100 36141 ft 446 kts 318°
2026-05-07 19:17 56.07326 15.26751 36131 ft 445 kts 318°
2026-05-07 19:18 56.11950 15.19386 36136 ft 446 kts 318°
2026-05-07 19:18 56.16569 15.12007 36130 ft 446 kts 318°
2026-05-07 19:19 56.21185 15.04608 36140 ft 446 kts 318°
2026-05-07 19:19 56.25785 14.97208 36134 ft 444 kts 318°
2026-05-07 19:20 56.30370 14.89809 36126 ft 443 kts 318°
2026-05-07 19:20 56.34934 14.82417 36126 ft 442 kts 318°
2026-05-07 19:21 56.39479 14.75033 36126 ft 442 kts 318°
2026-05-07 19:21 56.44033 14.67611 36118 ft 443 kts 318°
2026-05-07 19:22 56.48582 14.60170 36104 ft 441 kts 318°
2026-05-07 19:22 56.53110 14.52738 36111 ft 441 kts 318°
2026-05-07 19:23 56.57622 14.45309 36103 ft 440 kts 318°
2026-05-07 19:23 56.62126 14.37866 36098 ft 439 kts 318°
2026-05-07 19:24 56.66630 14.30400 36103 ft 438 kts 317°
2026-05-07 19:24 56.71116 14.22940 36106 ft 438 kts 317°
2026-05-07 19:25 56.75597 14.15461 36095 ft 437 kts 317°
2026-05-07 19:25 56.80071 14.07967 36096 ft 437 kts 317°
2026-05-07 19:26 56.84519 14.00494 36082 ft 436 kts 317°
2026-05-07 19:26 56.88963 13.93001 36081 ft 436 kts 317°
2026-05-07 19:27 56.93406 13.85487 36089 ft 437 kts 317°
2026-05-07 19:27 56.97846 13.77951 36091 ft 435 kts 317°
2026-05-07 19:28 57.02262 13.70430 36089 ft 436 kts 317°
2026-05-07 19:28 57.06679 13.62882 36089 ft 435 kts 317°
2026-05-07 19:29 57.11084 13.55328 36090 ft 434 kts 317°
2026-05-07 19:29 57.15474 13.47775 36091 ft 435 kts 317°
2026-05-07 19:30 57.19866 13.40193 36093 ft 435 kts 317°
2026-05-07 19:30 57.24260 13.32580 36095 ft 435 kts 316°
2026-05-07 19:31 57.28636 13.24973 36094 ft 433 kts 316°
2026-05-07 19:31 57.33001 13.17360 36096 ft 432 kts 316°
2026-05-07 19:32 57.37347 13.09754 36096 ft 431 kts 316°
2026-05-07 19:32 57.41681 13.02143 36101 ft 432 kts 316°
2026-05-07 19:33 57.46019 12.94498 36100 ft 431 kts 316°
2026-05-07 19:33 57.50349 12.86843 36103 ft 432 kts 316°
2026-05-07 19:34 57.54677 12.79163 36107 ft 432 kts 316°
2026-05-07 19:34 57.58996 12.71474 36110 ft 431 kts 316°
2026-05-07 19:35 57.63304 12.63778 36113 ft 430 kts 315°
2026-05-07 19:35 57.67610 12.56059 36117 ft 431 kts 315°
2026-05-07 19:36 57.71917 12.48312 36120 ft 429 kts 315°
2026-05-07 19:36 57.76200 12.40581 36120 ft 430 kts 315°
2026-05-07 19:37 57.80487 12.32814 36123 ft 430 kts 314°
2026-05-07 19:37 57.84755 12.25057 36125 ft 429 kts 314°
2026-05-07 19:38 57.89018 12.17281 36127 ft 429 kts 314°
2026-05-07 19:38 57.93278 12.09482 36124 ft 429 kts 314°
2026-05-07 19:39 57.97531 12.01672 36121 ft 429 kts 314°
2026-05-07 19:39 58.01069 11.95153 36118 ft 427 kts 314°
2026-05-07 19:40 58.06007 11.86022 36123 ft 427 kts 314°
2026-05-07 19:40 58.10226 11.78193 36137 ft 427 kts 314°
2026-05-07 19:41 58.14553 11.70538 36139 ft 427 kts 319°
2026-05-07 19:41 58.19663 11.64862 36140 ft 432 kts 336°
2026-05-07 19:42 58.25444 11.61779 36136 ft 435 kts 346°
2026-05-07 19:42 58.31386 11.59809 36136 ft 436 kts 348°
2026-05-07 19:43 58.37364 11.58065 36135 ft 437 kts 348°
2026-05-07 19:43 58.43328 11.56304 36129 ft 435 kts 348°
2026-05-07 19:44 58.49278 11.54496 36129 ft 435 kts 348°
2026-05-07 19:44 58.55228 11.52656 36127 ft 434 kts 347°
2026-05-07 19:45 58.61179 11.50798 36126 ft 434 kts 347°
2026-05-07 19:45 58.64145 11.49868 36016 ft 431 kts 347°
2026-05-07 19:45 58.67070 11.48951 35707 ft 425 kts 347°
2026-05-07 19:46 58.69974 11.48038 35206 ft 424 kts 347°
2026-05-07 19:46 58.72871 11.47121 34529 ft 427 kts 347°
2026-05-07 19:46 58.75786 11.46196 33780 ft 428 kts 347°
2026-05-07 19:46 58.78707 11.45269 33050 ft 429 kts 347°
2026-05-07 19:47 58.81636 11.44337 32299 ft 430 kts 347°
2026-05-07 19:47 58.84573 11.43509 31756 ft 428 kts 350°
2026-05-07 19:47 58.87541 11.43107 31497 ft 433 kts 353°
2026-05-07 19:47 58.90572 11.42977 31235 ft 441 kts 355°
2026-05-07 19:48 58.93635 11.42968 30972 ft 441 kts 355°
2026-05-07 19:48 58.96671 11.42999 30712 ft 437 kts 356°
2026-05-07 19:48 58.99691 11.43028 30449 ft 434 kts 355°
2026-05-07 19:48 59.02702 11.43040 30187 ft 433 kts 355°
2026-05-07 19:49 59.05692 11.43033 29924 ft 431 kts 355°
2026-05-07 19:49 59.08666 11.43011 29654 ft 428 kts 355°
2026-05-07 19:49 59.11609 11.42981 29324 ft 419 kts 355°
2026-05-07 19:49 59.14495 11.42943 28885 ft 416 kts 355°
2026-05-07 19:50 59.17394 11.42891 28383 ft 421 kts 355°
2026-05-07 19:50 59.20304 11.42833 27871 ft 419 kts 355°
2026-05-07 19:50 59.23190 11.42778 27345 ft 414 kts 355°
2026-05-07 19:50 59.26042 11.42724 26847 ft 409 kts 355°
2026-05-07 19:51 59.28857 11.42671 26337 ft 404 kts 355°
2026-05-07 19:51 59.31635 11.42618 25842 ft 399 kts 354°
2026-05-07 19:51 59.34383 11.42564 25345 ft 394 kts 355°
2026-05-07 19:51 59.37100 11.42510 24885 ft 390 kts 355°
2026-05-07 19:52 59.39794 11.42452 24615 ft 391 kts 355°
2026-05-07 19:52 59.42529 11.42386 24361 ft 397 kts 355°
2026-05-07 19:52 59.45274 11.42323 24105 ft 395 kts 355°
2026-05-07 19:52 59.48001 11.42268 23850 ft 392 kts 355°
2026-05-07 19:53 59.50696 11.42216 23464 ft 388 kts 355°
2026-05-07 19:53 59.53395 11.42159 22557 ft 395 kts 355°
2026-05-07 19:53 59.56137 11.42096 21770 ft 397 kts 355°
2026-05-07 19:53 59.58885 11.42037 21171 ft 395 kts 355°
2026-05-07 19:54 59.61625 11.41982 20566 ft 392 kts 355°
2026-05-07 19:54 59.64337 11.41929 19979 ft 389 kts 355°
2026-05-07 19:54 59.67019 11.41875 19395 ft 387 kts 356°
2026-05-07 19:54 59.69689 11.41821 18792 ft 384 kts 356°
2026-05-07 19:55 59.72346 11.41767 18214 ft 382 kts 356°
2026-05-07 19:55 59.74977 11.41712 17599 ft 380 kts 356°
2026-05-07 19:55 59.77613 11.41655 16883 ft 381 kts 356°
2026-05-07 19:55 59.80244 11.41598 16257 ft 379 kts 356°
2026-05-07 19:56 59.82862 11.41544 15657 ft 377 kts 356°
2026-05-07 19:56 59.85462 11.41490 15067 ft 374 kts 357°
2026-05-07 19:56 59.88042 11.41436 14493 ft 371 kts 357°
2026-05-07 19:56 59.90602 11.41382 13916 ft 368 kts 357°
2026-05-07 19:57 59.93154 11.41327 13176 ft 370 kts 357°
2026-05-07 19:57 59.95712 11.41270 12525 ft 369 kts 358°
2026-05-07 19:57 59.98259 11.41215 11893 ft 367 kts 358°
2026-05-07 19:57 60.00794 11.41162 11279 ft 364 kts 358°
2026-05-07 19:58 60.03308 11.41109 10704 ft 362 kts 358°
2026-05-07 19:58 60.05801 11.41057 10120 ft 359 kts 359°
2026-05-07 19:58 60.08281 11.41004 9548 ft 356 kts 359°
2026-05-07 19:58 60.10737 11.40951 9005 ft 352 kts 359°
2026-05-07 19:59 60.13166 11.40899 8438 ft 350 kts 359°
2026-05-07 19:59 60.15582 11.40847 7907 ft 347 kts 360°
2026-05-07 19:59 60.17954 11.40797 7626 ft 336 kts 360°
2026-05-07 19:59 60.20235 11.40748 7481 ft 322 kts 360°
2026-05-07 20:00 60.21707 11.40717 7385 ft 314 kts 360°
2026-05-07 20:00 60.24531 11.40656 7247 ft 297 kts 360°
2026-05-07 20:00 60.26550 11.40612 7152 ft 285 kts 360°
2026-05-07 20:00 60.28494 11.40569 7019 ft 276 kts
2026-05-07 20:01 60.30394 11.40528 6675 ft 274 kts
2026-05-07 20:01 60.32298 11.40488 6303 ft 274 kts
2026-05-07 20:01 60.34193 11.40447 6011 ft 272 kts
2026-05-07 20:01 60.36070 11.40406 5704 ft 270 kts
2026-05-07 20:02 60.37926 11.40289 5507 ft 264 kts 356°
2026-05-07 20:02 60.39675 11.39493 5408 ft 254 kts 335°
2026-05-07 20:02 60.40978 11.37235 5184 ft 250 kts 302°
2026-05-07 20:02 60.41507 11.33960 4923 ft 246 kts 272°
2026-05-07 20:03 60.41414 11.30603 4836 ft 234 kts 261°
2026-05-07 20:03 60.41179 11.27436 4713 ft 223 kts 260°
2026-05-07 20:03 60.40930 11.24324 4297 ft 227 kts 258°
2026-05-07 20:03 60.40456 11.21311 3960 ft 224 kts 238°
2026-05-07 20:04 60.39405 11.19239 3955 ft 204 kts 205°
2026-05-07 20:04 60.38131 11.18552 3971 ft 181 kts 186°
2026-05-07 20:04 60.36884 11.18047 3900 ft 187 kts 192°
2026-05-07 20:04 60.35631 11.17321 3618 ft 188 kts 195°
2026-05-07 20:05 60.34407 11.16582 3430 ft 179 kts 194°
2026-05-07 20:05 60.33241 11.15919 3302 ft 172 kts 193°
2026-05-07 20:05 60.32052 11.15245 2791 ft 186 kts 194°
2026-05-07 20:05 60.30844 11.14535 2678 ft 174 kts 195°
2026-05-07 20:06 60.29713 11.13838 2416 ft 168 kts 195°
2026-05-07 20:06 60.28643 11.13238 2221 ft 152 kts 193°
2026-05-07 20:06 60.27659 11.12692 1950 ft 146 kts 195°
2026-05-07 20:06 60.26711 11.12104 1721 ft 140 kts 194°
2026-05-07 20:07 60.25779 11.11600 1592 ft 142 kts 194°
2026-05-07 20:07 60.24840 11.11033 1400 ft 140 kts 194°
2026-05-07 20:07 60.23901 11.10489 1200 ft 141 kts 193°
2026-05-07 20:07 60.22960 11.09958 1018 ft 141 kts 195°
2026-05-07 20:08 60.22028 11.09414 810 ft 139 kts 194°
2026-05-07 20:08 60.21111 11.08882 689 ft 131 kts 195°
2026-05-07 20:08 60.20401 11.08470 687 ft 75 kts 196°
2026-05-07 20:08 60.20109 11.08305 687 ft 29 kts 191°
2026-05-07 20:09 60.19943 11.08328 687 ft 20 kts 150°
2026-05-07 20:09 60.19899 11.08422 687 ft 0 kts 103°
2026-05-07 20:10 60.19899 11.08423 687 ft 1 kts 103°
2026-05-07 20:10 60.19891 11.08489 687 ft 5 kts 105°
2026-05-07 20:10 60.19876 11.08588 687 ft 9 kts 108°
2026-05-07 20:10 60.19851 11.08742 687 ft 11 kts 107°
2026-05-07 20:11 60.19820 11.08959 687 ft 18 kts 104°
2026-05-07 20:11 60.19785 11.09216 687 ft 17 kts 106°
2026-05-07 20:11 60.19746 11.09469 687 ft 17 kts 106°
2026-05-07 20:11 60.19715 11.09684 687 ft 9 kts 105°
2026-05-07 20:12 60.19668 11.09736 687 ft 8 kts 189°
2026-05-07 20:12 60.19612 11.09737 687 ft 7 kts 151°
2026-05-07 20:12 60.19571 11.09815 687 ft 6 kts 131°
2026-05-07 20:12 60.19556 11.09888 687 ft 1 kts 106°
2026-05-07 20:13 60.19555 11.09897 687 ft 0 kts 106°